Temperature
14 14 14 15 15 15 15 15 15 15 15 15 15 15 15 15 15 15 15 15 15 15 15 15 15 15 15 15 15 15 15 15 15 15 15 15 15 15 15 15 15 15 15
15 14 14 14 15 15 15 15 15 15 15 15 15 15 15 15 15 15 15 15 15 15 15 15 15 14 14 14 15 15 15 15 15 15 15 15 14 15 15 15 15 15 15
15 14 14 14 14 14 15 15 15 15 15 15 14 14 15 15 15 15 15 15 15 15 15 14 14 14 14 14 14 14 14 14 14 14 14 14 14 14 14 14 14 14 15
15 14 14 14 14 14 14 14 14 14 14 14 14 14 14 14 14 14 14 15 15 15 15 14 14 14 14 14 14 14 14 14 14 14 14 14 14 14 14 14 14 14 14
14 14 14 14 14 14 14 14 14 14 14 14 14 14 14 14 14 14 14 14 15 15 14 14 14 14 14 14 14 14 14 14 14 14 14 14 14 14 14 14 14 14 14
14 14 14 14 14 14 14 14 14 14 14 14 14 14 14 14 14 14 14 14 14 14 14 14 14 14 14 14 14 14 14 14 14 14 14 14 14 14 14 14 14 14 14
14 14 14 14 14 14 14 14 14 14 14 14 13 14 14 14 14 14 14 14 14 14 14 14 14 14 14 14 14 14 13 13 13 13 13 13 13 13 13 13 13 13 13
14 14 14 14 14 14 14 14 13 13 13 13 13 13 13 13 14 13 14 14 14 14 14 14 14 14 14 14 13 13 13 13 13 13 13 13 13 13 13 13 13 13 13
13 13 13 13 13 13 13 13 13 13 13 13 13 13 13 13 13 13 13 13 13 13 13 13 13 13 13 13 13 13 13 13 13 13 13 13 13 13 13 13 13 13 13
13 13 13 13 13 13 13 13 13 13 13 13 13 13 13 13 13 13 13 13 13 13 13 13 13 13 13 13 13 13 13 13 13 13 13 13 13 13 13 13 13 13 13
13 13 13 13 13 13 13 13 13 13 13 13 13 13 13 13 13 13 13 13 13 13 13 13 13 13 13 13 13 13 13 13 13 13 13 12 12 12 13 13 13 13 13
13 12 12 12 12 12 12 12 12 12 12 12 12 12 12 12 12 12 12 12 12 12 12 12 12 12 12 12 12 12 12 12 12 12 12 12 12 12 12 12 12 12 12
12 12 12 12 12 12 12 12 12 12 12 12 12 12 12 12 12 12 12 12 12 12 12 12 12 12 12 12 12 12 12 12 12 12 12 12 12 12 12 12 12 12 12
12 12 12 12 12 12 12 12 12 12 12 12 12 12 12 12 12 12 12 12 12 12 11 11 12 12 12 12 12 12 12 12 12 12 12 12 12 12 12 12 12 12 12
12 12 12 12 12 12 11 11 11 11 11 11 11 11 11 11 12 12 11 11 11 11 11 11 11 11 11 11 11 11 11 11 11 11 11 11 11 11 11 11 11 11 11
11 11 11 11 11 11 11 11 11 11 11 11 11 11 11 11 11 11 11 11 11 11 11 11 11 11 11 11 11 11 11 11 11 11 11 11 11 11 11 11 11 11 11
11 11 11 11 11 11 11 11 11 11 11 11 11 11 11 11 11 11 11 11 11 11 11 10 11 10 10 10 10 10 10 10 10 10 10 10 11 10 10 10 10 10 10
10 10 10 10 10 10 10 10 10 10 10 10 10 10 10 11 11 10 10 10 10 10 10 10 10 10 10 10 10 10 10 10 10 10 10 10 10 10 10 10 10 10 10
10 10 10 10 10 10 10 10 10 10 10 10 10 10 10 10 10 10 10 10 10 10 10 10 10 10 10 9 9 9 9 9 9 9 9 9 9 9 9 9 10 10 10
9 9 9 9 9 9 9 9 9 9 9 9 10 10 10 10 10 10 10 10 10 10 10 9 9 9 9 9 9 9 9 9 9 9 9 9 9 9 9 9 9 9 9
9 9 9 9 9 9 9 9 9 9 9 9 9 9 9 9 9 9 9 9 9 9 9 9 9 9 8 8 9 8 8 8 8 8 8 8 8 8 8 8 8 9 9
8 8 8 8 8 8 8 8 8 8 9 9 9 9 9 9 9 9 9 9 9 9 9 9 9 8 8 8 8 8 7 7 7 8 8 8 8 8 8 8 8 8 8
8 8 8 8 7 7 7 7 7 7 8 8 8 8 8 8 8 9 9 8 9 9 9 9 8 8 8 8 8 7 7 7 7 7 7 7 7 7 7 7 7 7 8
7 7 7 7 7 7 7 7 7 7 7 7 8 8 8 8 8 8 8 8 8 8 8 8 8 8 8 8 7 7 7 7 7 6 6 7 7 7 7 7 7 7 7
6 6 6 6 6 6 6 6 6 6 6 7 7 7 7 7 8 8 8 8 8 8 8 8 8 8 8 7 7 7 7 7 7 7 6 6 6 6 6 6 6 6 6
6 6 6 6 6 6 6 6 6 6 6 6 6 7 7 7 7 7 7 7 7 7 7 7 7 7 7 7 7 7 7 7 7 7 6 6 6 6 6 6 6 6 6
Wind_Speed
4 8 12 11 11 10 10 10 10 9 9 9 9 10 10 10 10 10 10 10 10 10 11 11 11 12 12 13 13 14 14 14 14 14 14 14 14 15 15 14 14 14 15
6 10 13 12 11 11 10 10 9 9 8 8 9 9 9 9 9 9 9 9 10 10 10 11 11 11 11 12 12 12 13 13 13 13 13 13 14 14 14 14 13 13 15
8 10 12 12 11 11 10 10 9 8 8 8 8 8 8 8 8 8 8 9 9 9 10 11 11 11 11 11 11 11 12 12 12 12 11 10 11 13 13 13 13 14 14
10 11 10 12 12 11 10 10 9 8 8 7 7 7 7 7 7 7 7 8 9 9 9 10 11 10 10 10 10 10 11 10 10 10 9 8 9 11 12 12 13 13 13
9 10 10 11 11 11 10 10 9 8 8 7 7 7 7 7 7 7 7 8 9 9 9 10 10 10 10 10 9 9 9 9 10 9 8 8 8 10 11 12 12 12 12
7 10 11 11 10 10 9 9 8 8 7 7 7 6 6 6 7 7 8 8 9 9 9 9 9 9 9 9 9 9 9 9 9 9 8 7 7 9 10 11 11 11 12
7 9 10 11 10 9 8 8 7 8 7 7 6 7 6 6 6 7 7 8 8 9 9 8 8 8 8 8 8 8 8 9 9 8 7 6 7 9 9 10 10 10 11
7 8 9 10 9 9 8 7 7 6 7 6 6 6 6 6 6 6 6 7 8 8 8 8 7 7 7 7 7 8 8 8 7 6 5 5 6 8 9 10 10 10 10
8 7 6 8 8 8 8 7 6 6 5 5 5 6 6 6 5 6 6 7 7 7 7 7 6 6 6 6 7 7 7 7 7 5 5 4 6 7 9 9 9 9 10
6 5 5 5 6 6 6 6 6 5 5 4 5 6 6 6 6 6 6 7 7 7 6 6 6 6 6 6 6 6 6 7 6 5 4 4 6 7 9 9 9 9 9
4 3 3 3 4 5 6 6 5 5 4 4 5 6 6 5 5 5 6 6 6 6 6 5 5 5 5 5 5 5 5 5 5 4 4 4 6 7 8 9 9 9 9
3 2 2 2 3 4 5 5 4 4 4 4 4 5 5 5 5 5 5 5 5 5 5 5 5 4 4 4 4 4 4 5 4 3 3 4 4 6 7 8 8 8 8
3 2 2 2 3 3 3 4 4 3 4 4 5 5 5 5 4 4 4 4 4 4 4 4 4 4 4 4 3 4 4 4 3 3 3 3 3 5 6 7 8 8 7
2 2 2 1 2 2 3 4 4 4 3 3 4 6 5 4 3 3 4 4 4 4 4 4 3 4 4 4 4 4 5 5 4 3 3 3 2 4 5 6 7 7 7
2 2 2 1 1 2 2 2 3 3 4 4 4 5 5 4 3 3 3 3 3 4 4 3 3 3 3 3 4 4 4 4 5 4 3 4 4 3 4 6 6 7 7
2 2 2 2 2 2 2 2 2 3 4 4 4 5 6 5 4 3 3 3 3 4 5 4 3 3 3 3 3 4 4 4 5 5 4 4 4 4 3 4 6 6 6
3 2 2 2 1 1 1 2 2 3 3 3 3 5 6 6 5 4 3 2 3 4 5 4 4 4 3 3 3 3 3 4 4 4 4 4 4 4 3 2 4 5 6
2 1 1 2 1 1 1 1 2 2 3 3 3 4 5 6 7 5 3 2 4 4 4 3 3 3 3 3 2 2 3 3 4 4 4 3 3 3 3 2 3 4 5
3 2 1 1 1 1 1 1 2 2 2 2 3 3 4 5 6 5 3 3 4 4 3 3 3 3 3 3 3 3 2 2 2 3 3 3 4 4 4 3 3 3 3
1 1 1 1 1 1 1 2 1 1 1 2 2 3 4 5 6 5 4 3 4 3 3 3 3 3 3 4 4 3 3 3 3 3 3 3 4 4 4 5 4 4 3
2 2 1 1 1 1 1 0 0 1 1 1 1 3 4 5 5 5 4 3 4 3 4 4 4 4 3 3 3 3 3 4 4 3 3 3 3 4 4 5 5 4 4
1 1 1 1 0 1 1 1 1 1 1 1 1 2 4 4 5 5 5 3 3 3 4 4 4 3 2 2 3 3 1 3 3 3 2 2 2 3 3 3 3 4 4
1 1 1 1 1 2 1 1 2 2 1 1 1 1 2 4 4 4 5 4 4 4 4 5 5 5 4 2 2 3 3 2 1 2 2 1 1 2 2 2 2 2 2
1 1 1 1 1 1 1 1 1 1 1 2 2 2 2 3 4 5 5 5 4 3 4 5 5 4 6 4 1 1 2 3 3 0 2 2 1 1 1 1 1 0 1
1 0 1 1 2 2 1 1 2 2 1 1 1 1 2 2 4 5 5 5 4 3 4 4 4 4 4 4 4 2 2 1 2 2 2 1 2 1 1 1 0 1 1
2 2 2 2 2 2 2 1 2 2 2 1 1 2 2 1 2 4 5 4 4 4 4 4 4 5 5 4 4 3 3 3 2 2 2 2 2 2 2 1 1 2 2
Wind_Direction
170 169 151 145 139 132 125 119 113 107 104 103 101 98 94 94 93 93 92 94 97 96 95 95 96 94 91 89 87 87 86 85 83 81 81 83 85 87 86 84 82 82 86
158 161 150 145 143 138 131 123 116 110 108 107 107 105 99 97 95 95 96 97 99 98 96 94 97 97 94 92 90 89 88 88 85 80 79 82 86 89 90 88 86 89 89
137 146 148 146 143 139 134 128 123 117 114 110 110 109 105 102 99 97 98 100 102 100 96 94 95 97 94 93 92 92 92 90 86 81 79 79 86 91 92 92 92 92 91
134 136 140 144 142 138 134 130 128 124 118 115 113 113 111 105 104 100 102 104 104 103 100 97 94 93 92 90 92 97 96 90 86 83 80 78 88 95 95 96 94 94 93
126 132 139 140 140 140 137 133 131 130 126 121 118 116 114 109 105 102 102 105 107 107 105 101 96 92 90 88 89 96 95 89 89 84 81 80 91 98 99 100 98 97 96
123 131 138 138 136 135 134 135 135 132 131 127 126 125 119 114 110 107 107 109 108 111 110 106 101 97 93 89 86 91 90 86 88 83 84 90 98 103 100 103 104 106 103
126 130 137 141 139 137 137 133 134 135 134 133 131 131 126 122 119 115 114 118 116 114 113 109 106 102 97 93 87 85 85 87 86 86 87 96 107 109 106 105 109 109 109
131 131 137 140 142 142 141 140 136 137 140 139 141 138 133 131 130 126 124 126 125 120 117 116 113 107 102 98 90 83 83 85 85 89 90 101 119 117 112 108 107 111 112
122 123 129 138 140 143 145 143 141 138 142 142 140 142 141 140 141 137 137 134 129 125 122 121 120 115 110 104 94 85 81 82 85 89 93 101 121 125 119 113 109 108 110
108 114 122 132 137 135 142 144 144 143 139 142 138 133 133 138 143 146 142 138 131 129 129 125 121 120 116 110 97 85 76 78 80 87 91 106 123 130 126 121 116 113 110
107 113 118 120 135 141 146 145 146 152 146 134 138 138 130 126 132 144 146 145 137 131 130 129 121 120 118 109 98 86 75 74 85 90 95 102 123 132 128 126 122 117 116
143 136 113 126 145 151 153 149 150 151 144 133 129 134 132 133 135 136 141 147 142 135 130 125 117 112 112 101 92 85 77 78 86 91 97 100 122 136 131 131 129 124 121
176 163 152 139 150 149 151 153 150 145 137 132 131 134 131 126 125 128 128 128 126 128 122 114 101 92 100 99 90 84 82 87 87 88 89 100 126 146 143 139 137 134 133
167 185 187 156 134 140 156 162 153 141 135 135 140 139 129 119 116 124 123 126 123 125 119 112 102 94 98 102 104 91 84 86 87 88 86 97 123 155 156 148 142 140 145
170 206 201 172 154 149 140 153 149 151 153 154 148 144 139 128 132 127 123 126 127 126 125 118 108 100 96 93 98 99 87 82 82 83 78 81 89 115 146 147 145 144 146
199 213 209 184 163 140 141 149 149 157 160 155 151 155 150 141 131 131 131 120 124 132 132 125 118 114 107 99 91 93 94 89 83 76 77 79 78 80 112 152 159 152 148
198 196 191 179 151 136 137 149 146 148 148 149 159 163 157 150 144 134 138 141 138 136 126 112 103 98 100 96 91 88 92 86 85 78 77 81 81 72 77 124 159 162 162
168 172 181 155 125 122 125 144 142 146 143 153 160 160 162 157 152 141 141 155 148 135 126 127 124 112 97 94 87 72 75 80 82 87 83 83 88 79 65 81 118 144 158
173 160 150 137 137 138 126 118 133 138 145 154 157 150 160 160 156 146 147 148 144 130 128 142 130 125 120 109 93 71 59 66 69 84 74 78 87 86 78 70 87 113 132
158 141 128 106 110 93 73 57 62 94 110 147 158 165 160 159 160 151 142 142 136 139 139 134 130 115 122 121 97 65 44 39 50 58 63 77 82 81 80 78 77 86 93
58 67 79 76 70 108 70 107 162 237 235 232 197 181 173 159 158 153 148 142 139 152 162 150 132 124 112 117 93 62 32 36 46 41 46 63 64 63 68 75 87 87 88
61 45 47 34 351 262 249 231 228 224 226 237 220 183 173 162 161 162 157 160 155 152 156 152 139 135 142 140 122 115 57 7 8 17 24 54 56 64 65 66 81 87 87
36 8 324 316 321 311 320 27 32 36 30 17 284 242 206 180 171 163 168 168 168 164 172 173 164 155 162 179 159 144 148 196 262 344 0 25 44 55 51 51 68 71 92
310 322 343 328 338 330 337 173 169 187 226 240 240 241 236 202 191 180 172 172 176 171 178 185 178 170 164 172 183 130 147 153 156 199 325 340 356 6 348 27 70 86 135
336 33 4 7 348 341 327 253 214 228 243 266 248 216 231 226 207 197 184 177 179 179 183 181 180 176 173 174 173 157 118 102 129 158 214 273 325 310 297 289 247 253 239
19 45 31 19 348 336 321 298 255 235 223 219 232 219 235 238 230 211 195 189 188 189 190 188 185 186 183 179 176 169 164 165 172 163 191 221 260 290 301 279 259 241 257
Height
1531 1533 1534 1535 1536 1537 1538 1538 1538 1539 1539 1540 1540 1540 1541 1541 1541 1541 1541 1542 1542 1542 1542 1542 1542 1543 1543 1543 1544 1544 1544 1545 1545 1545 1545 1546 1546 1546 1547 1547 1547 1547 1547
1531 1532 1534 1535 1536 1537 1537 1538 1539 1539 1539 1540 1540 1541 1541 1541 1541 1542 1542 1542 1542 1543 1543 1543 1543 1544 1544 1544 1545 1545 1545 1546 1546 1546 1547 1547 1548 1548 1548 1549 1549 1549 1549
1531 1532 1534 1535 1536 1537 1537 1538 1539 1539 1539 1540 1540 1541 1541 1541 1542 1542 1542 1542 1543 1543 1543 1544 1544 1544 1545 1545 1546 1546 1547 1547 1547 1548 1548 1549 1549 1549 1550 1550 1550 1550 1550
1531 1532 1533 1535 1536 1536 1537 1538 1538 1539 1539 1540 1540 1540 1541 1541 1542 1542 1542 1543 1543 1543 1544 1544 1545 1545 1546 1546 1547 1547 1548 1548 1548 1549 1549 1550 1550 1551 1551 1551 1552 1552 1552
1530 1532 1533 1534 1535 1536 1537 1537 1538 1538 1538 1539 1540 1540 1540 1541 1541 1542 1542 1543 1543 1543 1544 1544 1545 1546 1546 1547 1547 1548 1548 1549 1549 1550 1550 1551 1551 1552 1552 1552 1553 1553 1553
1530 1531 1533 1534 1535 1535 1536 1537 1537 1537 1538 1538 1539 1539 1540 1540 1541 1542 1542 1542 1543 1543 1544 1545 1545 1546 1546 1547 1548 1548 1549 1549 1550 1551 1551 1552 1552 1553 1553 1553 1554 1554 1554
1530 1531 1532 1533 1534 1535 1535 1536 1536 1537 1537 1538 1538 1539 1539 1540 1541 1541 1542 1542 1543 1543 1544 1545 1545 1546 1546 1547 1548 1549 1549 1550 1550 1551 1552 1552 1553 1553 1554 1554 1555 1555 1555
1530 1531 1532 1533 1533 1534 1535 1535 1536 1536 1536 1537 1537 1538 1538 1539 1540 1541 1541 1542 1542 1543 1544 1544 1545 1546 1546 1547 1548 1549 1549 1550 1551 1551 1552 1552 1553 1553 1554 1555 1555 1555 1556
1529 1530 1531 1532 1533 1533 1534 1534 1535 1535 1536 1536 1537 1537 1538 1538 1539 1540 1540 1541 1542 1542 1543 1544 1545 1545 1546 1547 1548 1548 1549 1550 1551 1551 1552 1552 1553 1554 1554 1555 1555 1556 1556
1529 1529 1530 1531 1531 1532 1533 1533 1534 1534 1534 1535 1536 1536 1537 1537 1538 1539 1539 1540 1541 1542 1543 1543 1544 1545 1545 1546 1547 1548 1549 1549 1550 1551 1552 1552 1553 1554 1554 1555 1555 1556 1556
1527 1528 1529 1529 1530 1531 1531 1532 1532 1533 1533 1534 1534 1535 1536 1536 1537 1537 1538 1539 1540 1541 1542 1543 1543 1544 1545 1546 1547 1547 1548 1549 1550 1551 1551 1552 1553 1554 1554 1555 1555 1556 1556
1525 1526 1527 1528 1529 1529 1530 1530 1531 1531 1532 1532 1533 1533 1534 1535 1536 1536 1537 1538 1539 1540 1541 1542 1543 1544 1544 1545 1546 1547 1548 1548 1549 1550 1551 1552 1553 1553 1554 1554 1555 1555 1556
1524 1525 1526 1526 1527 1527 1528 1529 1529 1530 1530 1531 1532 1532 1533 1534 1534 1535 1536 1537 1538 1539 1540 1541 1542 1542 1543 1544 1545 1546 1547 1548 1549 1550 1551 1551 1552 1553 1553 1554 1555 1555 1556
1522 1523 1523 1524 1525 1525 1526 1527 1527 1528 1528 1529 1530 1531 1531 1532 1533 1534 1534 1535 1536 1537 1538 1539 1540 1541 1542 1543 1544 1545 1546 1547 1548 1549 1549 1550 1551 1552 1552 1553 1554 1554 1555
1520 1521 1521 1522 1523 1523 1524 1524 1525 1526 1527 1527 1528 1529 1530 1530 1531 1532 1533 1534 1535 1536 1537 1538 1539 1540 1541 1542 1543 1544 1545 1546 1547 1547 1548 1549 1550 1550 1551 1552 1552 1553 1554
1518 1518 1519 1520 1521 1521 1522 1522 1523 1524 1525 1525 1526 1527 1528 1528 1529 1530 1531 1532 1533 1534 1535 1536 1537 1538 1539 1540 1541 1542 1544 1544 1545 1546 1547 1548 1548 1549 1550 1550 1551 1552 1552
1516 1516 1517 1517 1518 1519 1519 1520 1521 1521 1522 1523 1524 1525 1526 1526 1527 1528 1529 1530 1531 1532 1533 1534 1536 1537 1538 1539 1540 1541 1542 1543 1544 1544 1545 1546 1547 1547 1548 1549 1549 1550 1551
1513 1514 1514 1515 1516 1516 1517 1518 1518 1519 1520 1521 1522 1522 1523 1524 1525 1526 1527 1528 1529 1530 1531 1532 1533 1535 1536 1537 1538 1539 1540 1541 1542 1543 1544 1544 1545 1546 1546 1547 1548 1548 1549
1511 1511 1512 1512 1513 1513 1514 1515 1516 1517 1517 1518 1519 1520 1521 1521 1522 1523 1524 1526 1527 1528 1529 1530 1531 1533 1534 1535 1537 1538 1539 1539 1540 1541 1542 1543 1543 1544 1545 1545 1546 1546 1547
1509 1509 1509 1510 1510 1511 1512 1512 1513 1514 1515 1516 1517 1518 1518 1519 1520 1521 1522 1523 1524 1526 1527 1528 1529 1531 1532 1534 1535 1536 1537 1538 1538 1539 1540 1541 1541 1542 1543 1543 1544 1544 1545
1506 1506 1506 1507 1507 1508 1508 1509 1510 1510 1511 1512 1514 1515 1516 1517 1518 1519 1520 1521 1522 1523 1525 1526 1527 1528 1530 1531 1533 1534 1535 1536 1537 1538 1538 1539 1540 1540 1541 1541 1542 1542 1543
1503 1504 1504 1504 1505 1505 1506 1507 1508 1508 1509 1510 1511 1512 1513 1514 1515 1516 1517 1518 1519 1521 1522 1523 1525 1526 1528 1529 1530 1532 1533 1536 1535 1536 1537 1537 1538 1538 1539 1539 1540 1540 1541
1501 1501 1502 1502 1503 1503 1504 1505 1505 1506 1506 1507 1507 1509 1510 1511 1512 1513 1514 1516 1517 1518 1519 1521 1522 1524 1525 1527 1528 1530 1531 1531 1533 1534 1534 1535 1535 1536 1537 1537 1537 1538 1538
1500 1500 1500 1500 1501 1501 1501 1502 1502 1502 1503 1503 1505 1506 1507 1508 1509 1510 1512 1513 1514 1515 1516 1518 1519 1521 1522 1523 1525 1527 1528 1528 1530 1531 1532 1532 1533 1534 1534 1535 1535 1536 1536
1499 1499 1498 1499 1499 1499 1499 1499 1500 1500 1501 1502 1502 1503 1504 1505 1506 1507 1508 1510 1511 1512 1513 1515 1516 1518 1519 1520 1522 1523 1525 1526 1527 1528 1528 1529 1530 1531 1531 1532 1532 1533 1533
1497 1497 1496 1496 1496 1497 1497 1497 1497 1497 1498 1498 1499 1499 1500 1501 1503 1504 1505 1506 1507 1509 1510 1511 1513 1514 1516 1517 1519 1520 1521 1523 1524 1525 1525 1525 1526 1528 1528 1529 1530 1530 1531